Location: ???????
(55.5931°N, 39.3286°E)
Time: 12:20:15
(UTC+00:00)

FENGYUN 3A - Visible Passes

Search period start: 13 July 2024 00:00
Search period end: 23 July 2024 00:00
Orbit: 822 x 835 km, 98.6° (Epoch: 13 July)

Date Brightness Start Highest point End Pass type
(mag) Time Alt. Az. Time Alt. Az. Time Alt. Az.
13 Jul 6.1 22:02:50 10° ENE 22:05:01 12° E 22:07:12 10° ESE visible
13 Jul 4.1 23:41:04 10° NNE 23:46:27 60° ESE 23:51:49 10° S visible
14 Jul 4.5 23:22:45 10° NNE 23:27:59 45° E 23:33:10 10° S visible
15 Jul 5.0 23:04:32 10° NNE 23:09:28 34° E 23:14:22 10° SSE visible
16 Jul 5.4 22:46:24 10° NE 22:50:54 26° E 22:55:22 10° SSE visible
17 Jul 5.7 22:28:25 10° NE 22:32:17 19° E 22:36:07 10° SE visible
18 Jul 3.8 00:07:50 10° NNE 00:13:18 90° WNW 00:18:44 10° SSW visible
18 Jul 6.0 22:10:42 10° NE 22:13:36 14° E 22:16:30 10° ESE visible
18 Jul 4.0 23:49:27 10° NNE 23:54:54 69° ESE 00:00:19 10° S visible
19 Jul 6.2 21:54:05 10° ENE 21:54:53 10° E 21:55:40 10° E visible
19 Jul 4.3 23:31:08 10° NNE 23:36:27 52° E 23:41:44 10° S visible
20 Jul 4.8 23:12:51 10° NNE 23:17:57 39° E 23:23:01 10° SSE visible
21 Jul 5.2 22:54:41 10° NNE 22:59:25 29° E 23:04:07 10° SSE visible
22 Jul 5.6 22:36:36 10° NE 22:40:49 22° E 22:44:59 10° SE visible
